Zurück zum Katalog

FENGYUN 1C DEB

AktivSSO
NORAD 31181·DEBRIS·🇨🇳 China

Gestartet May 10, 1999 von Taiyuan Satellite Launch Center

Loading…

Nächste Überflüge (nächste 24 Stunden)

TLE

AktuellSource: Space-Track

Epoche: Sep 14, 2026, 08:27 UTC

1 31181U 99025BJK 26257.35238476  .00000905  00000-0  50639-3 0  9999
2 31181  98.7541 288.7958 0046639  11.4634   1.9264 14.12697256996586

Verfolge FENGYUN 1C DEB in Echtzeit mit AllMySat

Download on the App Store